Temp
14 14 14 14 14 13 13 12 14 13 14 14 15 16 16 17 19 20 19 21 21 21 21 21 21 21 21 21 20 18 18 18 22 22 24 25 25 24 23 22 19 18 20 17 15
14 14 14 14 14 13 13 12 12 13 14 14 15 15 16 17 18 18 21 21 21 21 21 19 18 18 19 21 20 19 17 20 21 23 24 24 25 23 23 21 18 16 16 16 15
14 14 14 14 14 14 13 13 13 13 13 14 14 15 16 17 16 20 21 20 20 20 20 20 19 20 21 20 21 19 19 20 23 23 23 24 24 22 20 22 19 17 16 15 15
14 14 14 14 14 14 13 13 14 13 13 14 14 15 16 17 18 20 20 20 20 20 20 20 19 20 20 20 20 21 21 22 22 23 24 24 23 22 22 22 19 17 16 14 13
14 14 14 14 14 13 13 13 12 12 13 13 14 14 16 14 15 20 20 20 20 20 19 19 19 19 19 19 19 20 21 21 20 20 21 23 23 22 20 16 16 16 15 14 12
14 14 14 13 13 13 13 13 14 13 14 14 14 14 14 13 19 19 20 19 20 19 19 19 19 19 19 19 20 20 19 19 21 21 22 23 22 22 18 15 15 15 14 13 12
14 14 14 14 13 13 13 13 12 12 12 12 13 13 12 14 19 19 19 18 18 19 18 20 20 19 19 19 19 20 20 19 21 22 22 21 22 21 16 14 15 14 13 11 11
13 13 14 13 13 13 12 11 10 10 10 11 12 12 11 17 17 17 18 18 18 19 18 20 20 19 19 19 18 19 19 19 21 21 22 21 20 20 15 15 13 12 12 11 10
12 12 12 11 11 11 10 10 10 10 10 10 10 11 12 16 16 19 18 17 18 18 18 20 20 18 19 18 16 16 17 18 19 20 21 20 20 20 15 17 14 13 11 10 9
11 10 10 10 10 11 11 11 11 10 10 9 10 11 13 16 18 19 18 17 18 18 18 18 14 15 14 15 17 16 16 16 18 21 19 18 17 19 16 17 16 12 10 10 9
10 11 10 11 10 10 10 11 10 10 9 12 12 14 16 17 17 18 18 18 18 17 16 16 14 14 16 16 17 18 17 17 17 19 20 17 16 17 16 15 14 11 10 10 9
9 9 10 9 9 10 10 9 9 9 10 11 12 12 13 15 14 16 18 17 16 15 15 15 13 15 17 16 16 16 16 16 16 17 19 17 16 17 16 15 16 13 11 11 9
9 9 8 9 9 9 9 9 10 9 10 11 11 13 13 14 13 14 16 16 16 14 14 15 16 16 16 16 16 15 16 16 17 18 18 18 19 18 16 16 16 15 14 12 10
8 8 8 8 8 8 8 10 11 10 9 12 12 12 13 14 14 15 17 17 15 15 14 14 16 16 15 15 16 15 16 17 17 17 15 17 18 18 17 16 14 14 13 12 11
8 8 8 8 8 7 9 10 10 11 11 15 13 14 14 15 16 15 16 17 15 14 15 15 15 15 16 17 16 16 17 16 16 15 16 16 15 19 19 15 14 14 13 12 11
8 8 8 7 8 9 9 10 11 8 10 14 14 14 13 15 15 15 14 15 16 16 15 15 17 15 15 16 16 18 17 17 14 14 12 16 16 20 16 20 17 15 14 13 11
8 8 7 8 8 9 10 9 8 9 13 14 15 14 14 14 15 16 14 14 14 13 13 15 15 16 18 17 17 16 15 12 12 12 14 17 16 20 19 20 18 16 14 13 10
7 8 7 7 9 9 10 7 7 11 11 13 14 15 14 15 15 15 13 13 13 14 14 13 14 15 15 16 16 17 16 14 16 14 15 16 15 19 18 19 18 16 14 11 9
8 7 7 7 7 9 7 8 8 10 12 11 14 14 14 14 15 15 14 12 13 14 14 14 14 17 17 17 17 16 15 17 15 15 13 14 14 18 17 18 16 12 11 10 8
7 5 5 7 7 7 7 8 9 9 10 11 12 12 12 11 13 12 14 13 12 13 15 14 14 16 16 17 17 17 17 14 12 13 13 14 15 15 15 15 14 11 10 9 8
6 2 4 6 6 5 7 6 7 9 10 10 10 11 10 10 11 12 13 11 11 12 13 11 13 14 15 15 15 16 16 16 15 13 13 14 14 15 16 16 15 12 11 8 7
1 -0 5 5 6 4 6 6 8 9 10 10 11 10 10 10 11 11 12 10 10 11 11 10 11 10 13 15 16 16 15 15 13 13 12 13 14 16 15 15 13 13 8 7 7
-2 -1 5 5 5 4 5 6 7 7 9 9 9 8 10 10 10 10 11 10 10 9 10 10 10 11 12 13 12 12 12 12 12 12 11 12 13 14 13 13 12 10 7 6 5
-2 0 2 3 2 3 4 5 6 7 7 9 8 7 8 8 9 9 10 10 9 9 10 10 10 9 10 11 9 9 10 10 9 10 11 12 13 14 14 13 11 8 7 6 5
-3 -2 1 2 2 4 4 4 5 6 7 7 7 7 7 7 8 8 9 9 9 10 9 9 7 9 8 8 8 9 9 9 10 10 10 10 11 14 13 12 11 9 8 7 5
-2 -1 0 1 2 3 4 3 4 5 6 6 6 7 7 7 7 7 8 8 8 8 9 8 7 7 6 8 7 9 10 10 10 10 10 9 10 11 10 10 10 9 8 7 7
-0 1 -0 -1 1 3 2 3 4 4 5 6 6 5 5 5 6 6 5 7 8 8 8 7 7 7 8 7 7 8 9 10 11 10 9 9 10 11 10 9 10 11 10 9 8
Height
808 810 812 812 814 814 813 814 813 814 813 812 810 807 803 797 791 786 785 787 784 781 778 776 776 775 774 775 776 781 807 815 797 795 782 766 771 768 769 776 783 786 784 787 797
806 806 808 810 811 811 812 813 813 812 811 810 808 806 803 798 792 789 788 785 784 781 778 777 778 777 780 778 780 789 807 797 784 777 776 770 768 772 776 782 791 792 792 792 799
805 805 805 806 808 810 810 811 812 812 810 809 808 806 804 799 795 788 786 787 785 783 780 779 779 779 784 781 782 789 797 784 774 770 770 770 771 770 779 785 782 785 791 793 798
801 803 804 804 805 807 808 808 809 809 809 807 807 804 802 799 807 787 786 785 786 784 781 780 780 783 788 791 783 789 780 779 772 766 768 769 769 774 772 774 772 783 784 791 796
798 800 800 801 803 804 805 806 806 806 806 806 805 803 802 804 795 786 784 784 785 784 784 783 785 787 790 790 788 787 780 777 772 772 769 768 768 771 777 779 776 785 789 792 797
793 795 797 798 799 801 803 802 804 804 804 805 803 803 804 807 785 784 783 782 783 785 786 785 785 786 788 787 788 784 783 780 772 771 769 771 772 768 780 781 782 786 791 794 797
787 790 793 793 795 798 799 799 800 801 802 802 801 801 803 794 782 781 781 779 782 783 786 785 785 786 786 787 782 780 786 780 773 768 770 769 777 775 773 780 782 786 791 795 797
782 785 787 788 790 793 793 795 796 798 800 801 800 800 796 779 777 776 776 774 776 779 781 783 784 784 784 782 784 787 786 792 773 770 767 772 784 770 775 777 786 788 790 794 797
778 781 785 787 788 790 792 794 794 796 798 800 800 799 790 774 773 771 771 772 772 774 778 781 783 788 785 793 800 798 802 795 785 771 769 775 778 765 772 773 783 786 789 792 796
777 779 784 786 789 790 793 795 794 797 799 800 801 801 779 770 767 768 770 771 770 773 779 782 792 796 799 799 802 800 801 795 792 773 776 778 780 767 769 770 772 781 787 790 793
778 779 783 784 787 789 794 796 799 800 798 785 783 775 767 767 768 768 767 769 768 775 787 786 799 800 783 784 783 785 791 790 786 776 776 781 779 770 766 772 778 785 784 785 787
780 780 781 783 788 787 793 795 795 799 791 778 776 776 769 767 773 768 767 771 773 782 782 789 795 781 777 782 785 788 792 791 786 778 776 780 773 766 762 762 760 766 776 777 783
780 780 781 782 785 787 790 794 795 796 795 773 769 763 763 765 766 765 764 765 770 782 781 779 772 771 776 781 787 787 786 785 784 778 774 775 750 756 753 751 752 757 759 768 774
779 781 783 785 787 787 790 791 792 797 803 772 766 757 757 757 761 753 752 760 769 774 781 778 767 770 777 779 780 785 774 773 779 784 794 774 759 741 745 745 749 751 754 761 767
777 782 784 786 784 788 789 790 793 796 798 758 759 756 756 754 750 753 753 755 760 769 775 767 766 769 769 764 770 771 766 772 776 785 784 776 789 728 727 744 746 741 746 751 756
775 780 782 784 786 787 787 791 794 807 797 756 756 759 760 754 751 754 758 757 756 762 766 767 759 762 761 761 764 761 765 767 779 786 803 763 780 702 736 718 722 727 730 735 748
771 776 780 783 787 787 787 791 810 803 762 761 758 756 756 759 754 752 758 764 766 773 774 767 761 760 756 761 761 767 772 799 795 797 772 751 768 700 710 707 710 718 725 731 743
768 776 777 782 784 785 788 800 808 776 775 761 759 753 759 757 756 754 761 766 766 767 769 772 764 755 752 754 754 753 762 776 769 776 762 751 752 719 707 702 701 706 714 730 741
766 773 775 780 783 785 792 793 788 779 771 773 760 760 762 761 756 754 762 766 762 762 770 767 765 744 746 745 751 756 761 748 764 764 779 763 740 715 713 708 710 716 722 727 734
767 772 778 779 782 786 791 786 782 779 778 773 770 770 773 776 767 769 759 766 767 763 758 761 763 748 744 742 744 748 744 766 778 771 765 755 747 734 725 721 721 724 726 728 736
769 778 780 780 784 789 788 790 786 779 780 781 779 776 778 782 778 774 767 775 772 768 766 771 765 752 751 755 752 750 751 748 752 764 753 749 740 712 713 712 710 714 718 727 735
772 793 781 779 787 791 789 790 787 782 778 781 780 780 781 781 779 777 771 777 777 772 775 779 777 777 760 746 741 740 745 747 758 759 758 748 736 709 710 711 710 709 720 730 734
783 789 783 782 787 793 791 790 787 788 784 784 784 786 779 781 786 781 775 777 775 778 781 779 783 777 758 752 757 756 758 758 756 755 760 748 730 709 713 715 715 715 724 729 735
783 796 790 788 793 793 794 792 790 788 786 783 783 788 787 788 786 783 780 776 777 778 779 778 779 787 785 775 784 780 773 770 772 765 749 740 728 707 710 715 718 721 723 729 734
785 797 789 795 794 792 794 795 793 790 787 785 786 787 790 792 787 784 780 779 777 776 779 783 788 783 783 784 781 776 770 770 768 758 759 747 733 707 713 715 712 719 729 727 732
787 790 791 795 791 793 794 798 793 792 791 790 787 787 787 789 788 786 784 783 783 782 780 784 786 784 792 777 778 765 755 750 759 751 745 747 740 729 726 721 716 715 719 731 734
782 784 786 797 794 795 795 791 791 791 790 787 786 791 792 793 791 791 792 784 780 782 782 782 782 784 769 771 770 768 749 740 739 738 742 740 721 723 725 725 718 714 715 722 728
Wind_Speed
15 14 12 10 10 10 9 11 10 13 15 18 20 22 26 29 31 18 2 4 7 13 13 16 6 12 1 2 2 3 4 2 4 4 5 1 3 2 3 7 5 6 3 15 26
17 16 14 12 12 11 10 11 13 13 16 18 20 22 24 27 26 8 3 6 10 12 11 14 7 12 4 2 2 4 3 8 5 3 4 1 1 7 5 5 4 7 13 27 22
18 17 16 14 13 13 12 11 14 17 16 17 19 20 22 22 6 2 4 9 12 11 10 7 4 2 4 3 0 2 5 4 4 5 3 1 3 2 10 3 7 15 16 13 15
20 19 18 16 16 15 14 14 16 16 16 17 18 19 19 9 5 2 7 10 11 11 9 6 5 3 3 3 2 2 5 4 4 4 2 3 6 5 2 2 9 14 17 9 11
23 21 19 19 18 17 16 17 18 16 16 16 16 15 8 4 9 10 9 7 8 8 6 3 4 2 1 3 5 3 4 5 8 7 6 0 4 5 2 5 15 13 9 11 8
27 25 23 22 21 19 20 20 21 21 20 18 15 11 2 4 4 9 10 9 5 4 5 3 0 3 3 3 1 3 5 7 6 5 3 4 1 5 3 6 13 13 9 8 9
30 29 26 27 25 22 22 21 21 17 15 13 12 5 2 15 12 19 25 24 13 6 3 3 2 1 2 4 3 3 5 6 4 2 4 5 5 6 8 9 14 12 8 7 7
22 20 25 27 26 23 19 15 12 10 9 9 6 2 7 16 17 21 21 21 17 16 13 12 7 3 3 3 6 3 1 3 4 6 4 7 7 8 11 15 11 10 9 8 6
18 18 16 15 14 11 10 9 7 7 5 5 3 4 8 6 7 6 8 6 1 11 10 5 1 2 1 2 4 2 4 4 6 8 3 7 6 10 13 16 13 12 10 9 8
16 17 15 13 12 10 7 2 3 3 3 3 2 2 6 5 3 3 4 5 2 4 3 3 4 2 1 4 8 5 5 3 4 4 4 6 8 5 13 14 19 15 11 11 11
16 18 15 14 14 8 4 1 2 1 5 9 5 5 1 1 5 5 5 8 4 4 5 3 3 8 18 10 2 0 4 5 3 5 4 7 10 13 10 10 8 8 12 12 12
15 16 16 12 8 4 3 2 2 2 7 15 14 11 12 1 3 4 4 6 5 7 7 1 10 14 3 6 8 8 10 9 5 8 4 6 14 11 7 13 21 21 16 15 11
13 14 12 13 8 5 3 2 2 3 5 6 8 8 6 12 9 9 7 3 5 6 11 11 6 7 10 7 5 7 11 7 11 6 7 5 26 14 9 5 16 15 18 13 16
15 13 14 10 6 4 3 9 4 1 4 6 5 6 4 5 7 15 17 8 5 11 6 9 7 6 4 6 11 13 9 11 9 2 7 6 14 9 7 12 15 16 18 16 17
19 19 16 12 6 4 2 13 6 3 3 1 2 2 4 7 3 3 4 1 13 7 7 9 7 8 15 17 11 6 6 8 7 5 4 8 4 3 10 9 13 19 17 18 19
19 17 17 13 3 4 9 12 3 4 7 3 3 3 3 2 4 4 2 3 2 4 4 5 3 6 8 5 11 3 0 3 3 4 6 8 9 30 8 16 12 15 21 21 19
22 19 24 17 4 12 15 3 3 4 4 3 2 3 2 3 3 2 5 6 4 4 8 6 18 4 2 2 3 4 3 2 2 3 9 11 10 30 6 5 9 17 17 17 16
17 21 28 17 11 16 8 3 4 2 3 3 4 4 3 4 3 2 4 3 6 2 2 4 6 8 8 19 9 12 10 5 5 5 6 7 11 8 6 5 2 9 14 13 16
10 20 13 19 13 18 4 3 5 4 4 4 3 2 3 6 3 1 5 5 6 13 7 3 5 1 2 10 13 4 10 19 10 8 5 5 9 7 3 2 3 7 12 16 17
10 6 4 9 12 6 2 5 3 2 5 5 3 4 4 6 6 7 2 6 5 5 9 3 12 4 4 2 6 12 2 4 1 5 8 10 15 14 6 6 4 5 9 10 11
7 4 2 9 10 3 2 3 1 2 1 4 3 3 3 3 3 4 4 4 6 6 6 5 3 9 3 5 7 2 4 6 2 5 5 4 6 8 14 15 11 10 9 9 12
5 2 5 9 2 1 2 4 1 3 1 2 1 2 1 2 2 2 3 2 5 2 3 3 1 5 7 15 12 14 5 1 6 8 4 5 11 3 6 6 7 6 8 10 13
3 2 5 4 3 2 0 1 1 2 2 2 3 3 1 2 3 4 2 0 2 3 2 2 3 6 15 5 7 6 7 11 11 2 10 9 8 5 5 6 7 5 7 10 13
3 3 3 3 1 3 2 4 2 3 1 2 3 0 0 2 3 5 3 3 2 3 6 3 3 6 9 10 1 6 14 10 3 5 13 14 21 27 10 7 3 6 11 13 14
3 2 1 3 2 3 2 1 1 3 2 4 3 6 4 4 4 8 6 3 3 3 4 1 5 7 10 10 7 9 12 12 11 11 6 13 16 23 3 5 4 6 5 12 14
3 3 1 2 3 8 7 3 6 3 2 3 7 2 3 10 8 4 8 2 2 1 5 3 4 6 5 12 13 8 14 11 16 16 9 6 13 9 6 7 5 5 10 11 13
2 2 3 1 4 7 5 3 5 4 3 5 4 3 6 5 4 5 9 16 14 11 8 6 3 4 7 3 0 7 13 13 10 6 5 7 7 8 10 12 9 5 8 11 11
Wind_Direction
233 239 247 254 269 288 300 309 320 329 331 335 339 341 342 338 334 341 2 355 344 356 9 1 32 351 50 63 69 133 73 203 241 187 259 235 132 106 114 110 58 345 109 130 143
239 237 242 253 262 276 290 300 311 323 325 331 336 339 341 338 332 312 11 5 350 353 5 15 356 348 8 26 29 99 141 211 213 222 244 309 141 152 110 131 54 80 96 124 146
242 243 243 248 260 266 277 289 295 305 313 323 330 336 340 338 331 269 352 340 343 344 352 354 329 22 351 353 17 162 191 222 248 231 238 188 130 62 125 234 194 164 151 144 139
244 245 248 251 256 262 267 269 275 285 298 315 325 334 343 348 310 357 341 317 325 340 356 9 357 39 2 319 327 312 250 245 268 237 206 226 137 152 138 251 136 155 145 135 147
245 248 251 255 258 262 265 271 277 283 292 306 317 333 0 3 256 293 307 318 324 348 8 24 35 35 359 316 322 214 269 290 283 282 250 220 200 159 86 94 107 123 133 136 131
244 245 249 253 253 256 260 262 272 277 282 289 302 325 51 288 252 285 306 314 295 340 346 344 23 279 263 249 218 288 279 282 295 311 244 202 148 122 139 144 121 140 146 142 141
246 246 248 248 250 254 255 255 262 265 275 280 286 308 165 246 257 276 281 284 267 273 315 285 292 42 303 307 322 279 305 309 245 243 245 147 282 227 160 151 147 149 153 145 149
234 230 249 248 240 238 233 229 235 253 264 260 257 223 238 263 269 272 276 280 266 246 246 264 272 224 195 296 351 317 272 259 264 171 256 152 244 241 159 151 173 157 155 155 161
221 219 212 203 198 199 215 222 222 222 229 241 240 204 263 269 258 274 255 238 217 225 232 239 237 209 76 114 341 309 246 224 301 205 179 178 235 240 172 182 176 176 169 166 159
156 155 159 155 154 152 150 171 180 184 190 170 262 343 259 241 184 228 254 198 147 108 119 118 57 117 36 143 233 212 228 254 224 254 218 233 250 256 194 189 189 183 175 177 179
170 164 170 167 168 152 144 92 89 198 231 208 194 235 232 251 299 225 172 143 115 93 169 172 149 204 219 212 246 183 211 234 248 262 266 233 245 252 201 196 182 196 188 188 185
198 193 189 179 190 199 215 123 327 316 291 237 251 263 275 72 330 273 190 172 147 197 142 128 228 223 193 207 213 234 255 258 275 259 257 272 257 244 206 205 196 195 193 198 173
193 189 182 180 198 199 176 202 74 8 270 271 218 231 218 186 220 227 174 171 175 178 190 202 211 212 199 215 203 222 225 243 246 323 271 300 278 251 231 217 212 208 204 194 185
197 188 180 174 158 168 202 183 155 31 292 261 231 275 158 131 273 206 208 164 194 214 164 245 212 201 161 213 193 249 205 233 247 186 260 172 283 233 201 210 192 197 194 187 183
196 192 184 174 135 157 169 161 163 127 299 72 174 191 159 182 340 0 160 145 199 171 146 235 178 197 227 229 186 232 177 202 216 214 287 221 293 239 190 203 205 208 192 193 189
196 192 183 189 191 166 147 154 141 60 245 29 130 140 141 276 307 95 48 37 175 150 277 256 284 161 196 228 200 182 83 240 91 138 256 179 193 275 210 211 206 205 198 191 181
200 196 190 183 197 158 149 110 67 189 353 25 351 170 212 203 233 159 149 188 174 144 244 284 254 265 219 251 165 140 123 288 277 170 242 167 186 247 308 203 192 195 202 190 172
189 197 194 183 168 162 143 71 191 247 272 331 324 352 194 171 245 212 118 186 239 76 2 214 310 185 199 214 198 212 175 199 248 214 259 178 231 245 248 274 180 189 185 162 171
153 180 155 178 167 161 114 186 207 199 324 357 335 9 342 351 326 120 194 199 204 192 195 231 258 314 148 237 199 226 206 218 250 261 307 280 295 290 285 265 132 152 156 183 179
142 103 77 155 204 139 173 221 190 1 352 344 74 37 12 342 28 4 233 10 16 47 240 289 293 223 337 298 244 220 194 96 143 225 237 242 263 257 329 288 344 157 205 189 166
95 74 2 168 153 93 207 221 316 291 192 23 17 359 54 13 15 344 308 40 348 355 14 359 223 269 26 235 268 293 249 243 170 208 257 259 243 224 238 232 231 222 208 173 163
91 70 352 152 143 139 167 175 291 313 358 333 23 84 322 353 336 271 269 24 344 329 52 13 100 281 272 275 256 247 245 169 234 251 239 250 255 39 339 274 231 218 163 156 158
86 98 15 33 183 184 126 274 209 219 281 80 355 48 266 238 313 244 272 119 353 64 97 339 31 322 321 346 7 11 11 14 341 128 250 268 255 96 31 328 310 173 140 146 142
93 87 350 40 55 120 93 270 218 212 224 269 237 140 324 293 240 271 253 232 168 105 132 143 161 224 270 280 285 311 324 332 42 278 276 250 267 280 286 287 254 162 156 157 159
47 229 224 177 237 152 175 338 102 187 229 186 288 202 173 246 220 238 268 271 220 201 136 191 222 214 231 235 239 248 256 284 286 266 264 316 285 259 336 297 193 164 170 165 171
126 126 78 143 86 169 203 237 189 189 198 273 236 93 233 243 249 303 331 302 308 275 172 182 254 196 263 226 228 256 251 254 255 265 237 298 324 342 337 329 348 161 169 199 199
118 84 103 295 138 163 212 200 189 170 262 237 257 346 276 277 319 292 288 281 264 272 250 199 217 206 254 178 179 271 246 228 233 212 218 234 212 249 284 311 290 274 196 209 209